カタログに戻る

COSMOS 2571

運用中軍事LEO
NORAD 58172·PAYLOAD·🇷🇺 Russia

打ち上げ Oct 27, 2023 から Plesetsk Cosmodrome

Loading…

次のパス (今後24時間)

TLE

最新Source: Space-Track

元期: Sep 14, 2026, 20:11 UTC

1 58172U 23165C   26257.84155317 -.00000021  00000-0  38488-4 0  9995
2 58172  67.1482  69.2420 0019701 264.2028  95.6811 13.97339871146886

AllMySatでCOSMOS 2571をリアルタイム追跡

Download on the App Store